Available Load Listing

Click here to view advanced filters and to manage your preferences
Use the boxes above the column to filter results. Click a column heading to sort by that column.
Load# Call Available Origin City State Destination City State Dlv Dt Equip
LID3950116 830-629-4600 1969-12-31 ENNIS TX HOUSTON TX 1969-12-31 F
LID4198917 830-629-4600 2020-05-20 Ennis TX ROSENBERG TX 2020-05-20 F
LID4200934 830-629-4600 2020-05-21 Ennis TX ROSENBERG TX 2020-05-21 F
LID4205442 844-797-8188 2020-05-24 MISSOURI CITY TX SLIDELL LA 2020-05-25 VR
LID4204976-5 708-332-0526 2020-05-25 CONROE TX MIDDLETOWN OH 2020-05-27 PT
LID4205073 830-629-4600 2020-05-27 Dallas TX HOUSTON TX 2020-05-27 F
LID4206280 800-577-3878 2020-05-27 Jonesboro AR Del Rio TX 2020-05-29 V
LID4207056 830-629-4600 2020-05-27 Dallas TX OKLAHOMA CITY OK 2020-05-27 F
LID4204365 830-629-4600 2020-05-27 Dallas TX MEMPHIS TN 2020-05-27 F
LID4198920 830-629-4600 2020-05-28 Ennis TX HOUSTON TX 2020-05-28 F
LID4208419 830-629-4600 2020-05-29 Ennis TX LUBBOCK TX 2020-06-01 F
LID4213289 479-203-5637 2020-05-29 LANCASTER TX JOLIET IL 2020-06-01 V
LID4213039 855-494-2049 2020-05-29 FORT SMITH AR Houston TX 2020-06-01 F
LID4212664 360-588-4889 2020-05-29 MADILL OK BURNET TX 2020-06-01 SD
LID4213144 636-591-9021 2020-05-29 HOUSTON TX CHICAGO IL 2020-06-01 V
LID4210767 360-588-4889 2020-05-29 MADILL OK CONROE TX 2020-06-01 FD
LID4213010 855-494-2049 2020-05-29 FORT SMITH AR Houston TX 2020-06-01 F
LID4202555 800-577-3878 2020-05-29 Houston TX Waverly IA 2020-06-01 V
LID4212653 360-588-4889 2020-05-29 MADILL OK CONVERSE TX 2020-06-01 F
LID4208420 830-629-4600 2020-05-29 Ennis TX LUBBOCK TX 2020-06-01 F
LID4210189 727-209-3967 2020-05-29 Houston TX Litchfield MN 2020-06-01 V
LID4213458 800-577-3878 2020-05-29 Irving TX Stillwater OK 2020-06-01 V
LID4212060 855-894-3658 2020-05-29 COLUMBUS MS FORT WORTH TX 2020-06-01 FD
LID4207325 800-577-3878 2020-05-30 Fort Collins CO San Antonio TX 2020-06-01 V
LID4207321 800-577-3878 2020-05-30 Fort Collins CO San Antonio TX 2020-06-01 V
LID4207335 800-577-3878 2020-05-31 Fort Collins CO Austin TX 2020-06-02 V
LID4211294 844-797-8188 2020-05-31 MISSOURI CITY TX HOUSTON TX 2020-05-31 VR
LID4196933 727-209-3967 2020-05-31 LAREDO TX Neosho MO 2020-06-04 V
LID4211389 844-797-8188 2020-05-31 MISSOURI CITY TX HOUSTON TX 2020-05-31 VR
LID4211362 844-797-8188 2020-05-31 MISSOURI CITY TX HOUSTON TX 2020-05-31 VR
LID4211318 844-797-8188 2020-05-31 MISSOURI CITY TX HOUSTON TX 2020-05-31 VR
LID4210840 830-629-4600 2020-06-01 ARLINGTON TX HOUSTON TX 2020-06-02 F
LID4213422 937-827-0196 2020-06-01 SAN ANTONIO TX DAYTON OH 2020-06-03 FD
LID4206864 800-577-3878 2020-06-01 BELOIT WI TEMPLE TX 2020-06-03 V
LID4213223 844-214-4192 2020-06-01 WAXAHACHIE TX Oklahoma City OK 2020-06-02 V
LID4212524 937-827-0199 2020-06-01 Laredo TX ERIE PA 2020-06-03 V
LID4206329 847-463-5128 2020-06-01 GRAND SALINE TX RITTMAN OH 2020-06-03 VR
LID4204757 800-577-3878 2020-06-01 BELOIT WI FLOWER MOUND TX 2020-06-03 V
LID4212001 830-629-4600 2020-06-01 SHREVEPORT LA ENNIS TX 2020-06-01 F
LID4208888 847-463-5128 2020-06-01 DENTON TX Vaughan ON 2020-06-04 V
LID4213285 888-215-6538 2020-06-01 KANSAS CITY KS AMARILLO TX 2020-06-02 F
LID4213130 830-629-4600 2020-06-01 CORSICANA TX Austin TX 2020-06-02 F
LID4212200 830-629-4600 2020-06-01 CORSICANA TX Houston TX 2020-06-02 F
LID4208838 800-577-3878 2020-06-01 Perrysburg OH Runge TX 2020-06-04 V
LID4209613 830-629-4600 2020-06-01 Corsicana TX Houston TX 2020-06-02 FD
LID4195292 800-577-3878 2020-06-01 BELOIT WI FORT WORTH TX 2020-06-03 V
LID4211496 830-629-4600 2020-06-01 HOUSTON TX ABILENE TX 2020-06-01 FD
LID4213428 925-292-1059 2020-06-01 SAN ANTONIO TX VACAVILLE CA 2020-06-05
LID4211904 937-827-0199 2020-06-01 Alliance OH FORT WORTH TX 2020-06-03 FD
LID4206319 847-463-5128 2020-06-01 GRAND SALINE TX WEST CHESTER OH 2020-06-01 VR
LID4207889 888-285-4514 2020-06-01 LAREDO TX CONLEY GA 2020-06-03 V
LID4212061 800-577-3878 2020-06-01 ENNIS TX OKLAHOMA CITY OK 2020-06-01 F
LID4209958 830-629-4600 2020-06-01 DALLAS TX WACO TX 2020-06-01 F
LID4212873 937-827-0196 2020-06-01 SAN ANTONIO TX CINCINNATI OH 2020-06-03 SD
LID4209882 830-629-4600 2020-06-01 DALLAS TX WACO TX 2020-06-01 F
LID4211229 844-797-8188 2020-06-01 MISSOURI CITY TX HOUSTON TX 2020-06-01 VR
LID4209615 830-629-4600 2020-06-01 Corsicana TX Houston TX 2020-06-02 FD
BN213037 8778534756 2020-06-01 SACATON AZ ATHENS TX 2020-06-03 TF
LID4212612 830-629-4600 2020-06-01 Dallas TX EDINBURG TX 2020-06-02 F
LID4209610 830-629-4600 2020-06-01 Corsicana TX Houston TX 2020-06-02 FD
LID4208866 847-463-5128 2020-06-01 DENTON TX Vaughan ON 2020-06-04 V
LID4212890 830-629-4600 2020-06-01 Mt. Vernon IN WEBSTER TX 2020-06-03 F
LID4213128 830-629-4600 2020-06-01 CORSICANA TX Austin TX 2020-06-02 F
LID4210231 800-577-3878 2020-06-01 Marlin TX Jacksonville TX 2020-06-01 V
LID4209614 830-629-4600 2020-06-01 Corsicana TX Houston TX 2020-06-02 FD
LID4205422 888-285-4514 2020-06-01 LAREDO TX ALACHUA FL 2020-06-03 V
LID4204547 800-577-3878 2020-06-01 Pineville NC SELMA TX 2020-06-03 V
LID4213810 937-827-0196 2020-06-01 SAN ANTONIO TX WARREN MI 2020-06-03 FD
LID4212214 360-588-4889 2020-06-01 MADILL OK HOUSTON TX 2020-06-02 FD
LID4209611 830-629-4600 2020-06-01 Corsicana TX Houston TX 2020-06-02 FD
LID4212222 360-588-4889 2020-06-01 MADILL OK CONROE TX 2020-06-02 FD
LID4209620 830-629-4600 2020-06-01 CORSICANA TX Katy TX 2020-06-02 FD
LID4207424 844-373-5795 2020-06-01 DALLAS TX GROVEPORT OH 2020-06-03 V
LID4212395 360-588-4889 2020-06-01 MADILL OK CONROE TX 2020-06-02 FD
LID4206464 800-577-3878 2020-06-01 BELOIT WI HOUSTON TX 2020-06-04 V
LID4213368 844-214-4192 2020-06-01 WAXAHACHIE TX ALEXANDRIA LA 2020-06-02 V
LID4209622 830-629-4600 2020-06-01 CORSICANA TX Angleton TX 2020-06-02 F
LID4212827 800-577-3878 2020-06-01 Houston TX Danvers MA 2020-06-05 V
LID4213357 830-629-4600 2020-06-01 DALLAS TX DALLAS TX 2020-06-01 F
LID4207426 844-373-5795 2020-06-01 DALLAS TX GROVEPORT OH 2020-06-03 V
LID4208847 847-463-5128 2020-06-01 DENTON TX Vaughan ON 2020-06-04 V
LID4209595 830-629-4600 2020-06-01 Corsicana TX Houston TX 2020-06-02 F
LID4212533 830-629-4600 2020-06-02 IRVING TX GARLAND TX 2020-06-02 F
LID4212552 830-629-4600 2020-06-02 DALLAS TX TYLER TX 2020-06-02 F
LID4211723 830-629-4600 2020-06-02 GAINESVILLE TX Houston TX 2020-06-03 FD
LID4213512 830-629-4600 2020-06-02 SEALY TX AUSTIN TX 2020-06-02 F
LID4212548 830-629-4600 2020-06-02 DALLAS TX GARLAND TX 2020-06-02 F
LID4212544 830-629-4600 2020-06-02 DALLAS TX DALLAS TX 2020-06-02 F
LID4211024 800-577-3878 2020-06-02 ENNIS TX Tulsa OK 2020-06-02 F
LID4100705 800-500-4915 2020-06-02 Columbus OH Hutchins TX 2020-06-04 V
LID4213516 830-629-4600 2020-06-02 SEALY TX AUSTIN TX 2020-06-02 F
LID4211717 830-629-4600 2020-06-02 GAINESVILLE TX Houston TX 2020-06-03 FD
LID4211716 830-629-4600 2020-06-02 GAINESVILLE TX Houston TX 2020-06-03 FD
LID4213520 830-629-4600 2020-06-02 SEALY TX SAN ANTONIO TX 2020-06-02 F
LID4120565 830-629-4600 2020-06-02 ENNIS TX DALLAS TX 2020-06-02 F
LID4213528 830-629-4600 2020-06-02 SEALY TX KATY TX 2020-06-02 F
LID4213510 830-629-4600 2020-06-02 SEALY TX AUSTIN TX 2020-06-02 F
LID4213498 830-629-4600 2020-06-02 IRVING TX SAN ANTONIO TX 2020-06-02 F
LID4210181 844-797-8190 2020-06-02 TYLER TX PEWAUKEE WI 2020-06-04 V
LID4213499 830-629-4600 2020-06-02 DALLAS TX CONROE TX 2020-06-02 F
LID4211721 830-629-4600 2020-06-02 GAINESVILLE TX Houston TX 2020-06-03 FD
LID4212529 830-629-4600 2020-06-02 DALLAS TX FT. WORTH TX 2020-06-02 F
LID4211626 830-629-4600 2020-06-02 HOUSTON TX ABILENE TX 2020-06-02 FD
LID4212554 830-629-4600 2020-06-02 DALLAS TX TYLER TX 2020-06-02 F
LID4212535 830-629-4600 2020-06-02 DALLAS TX DALLAS TX 2020-06-02 F
LID4212547 830-629-4600 2020-06-02 DALLAS TX GARLAND TX 2020-06-02 F
LID4213517 830-629-4600 2020-06-02 SEALY TX SAN ANTONIO TX 2020-06-02 F
LID4212545 830-629-4600 2020-06-02 ENNIS TX DALLAS TX 2020-06-02 F
LID4212534 830-629-4600 2020-06-02 Ennis TX TYLER TX 2020-06-02 F
LID4213813 937-827-0197 2020-06-02 HARTFORD IL CORPUS CHRISTI TX 2020-06-03 V
LID4212546 830-629-4600 2020-06-02 IRVING TX GRAND PRAIRIE TX 2020-06-02 F
LID4212836 800-577-3878 2020-06-02 Houston TX Dillon SC 2020-06-03 VM
LID4213095 844-214-4192 2020-06-02 ARLINGTON TX HOUSTON TX 2020-06-03 V
LID4210229 844-797-8190 2020-06-02 TYLER TX PEWAUKEE WI 2020-06-04 V
LID4213529 830-629-4600 2020-06-02 ENNIS TX AUSTIN TX 2020-06-02 F
LID4213521 830-629-4600 2020-06-02 SEALY TX SAN ANTONIO TX 2020-06-02 F
LID4211485 844-797-8190 2020-06-02 TYLER TX ALSIP IL 2020-06-04 V
LID4213474-3 708-332-0526 2020-06-02 PHOENIX AZ FORT WORTH TX 2020-06-04 PT
LID4211140 844-814-7073 2020-06-02 TAMPA FL HOUSTON TX 2020-06-04 V
LID4212551 830-629-4600 2020-06-02 DALLAS TX TYLER TX 2020-06-02 F
LID4212517 855-494-2049 2020-06-02 TYLER TX COOKEVILLE TN 2020-06-03 V
LID4209304 847-463-5128 2020-06-02 DENTON TX FONTANA CA 2020-06-05 V
LID4213474-2 708-332-0526 2020-06-02 PHOENIX AZ FORT WORTH TX 2020-06-04 PT
LID4213288 847-463-5128 2020-06-02 COVINGTON TN ARLINGTON TX 2020-06-03 V
LID4213500 830-629-4600 2020-06-02 DALLAS TX HOUSTON TX 2020-06-02 F
LID4202374 844-214-4192 2020-06-02 Plymouth WI Houston TX 2020-06-04 RT
LID4211500 844-797-8190 2020-06-02 TYLER TX NEW LENOX IL 2020-06-04 V
LID4206636 844-797-8188 2020-06-02 DALLAS TX MONROE LA 2020-06-03 VR
LID4211084 636-591-9021 2020-06-02 Morgantown WV Point Comfort TX 2020-06-05 VZ
LID4209201 847-463-5128 2020-06-02 DENTON TX Vaughan ON 2020-06-05 V
LID4209392 847-463-5128 2020-06-02 DENTON TX LOGAN UT 2020-06-05 V
LID4209385 847-463-5128 2020-06-02 DENTON TX LOGAN UT 2020-06-05 V
LID4212532 830-629-4600 2020-06-02 IRVING TX GRAND PRAIRIE TX 2020-06-02 F
LID4211714 830-629-4600 2020-06-02 GAINESVILLE TX Houston TX 2020-06-03 FD
LID4211722 830-629-4600 2020-06-02 GAINESVILLE TX Houston TX 2020-06-03 FD
LID4213513 830-629-4600 2020-06-02 SEALY TX AUSTIN TX 2020-06-02 F
LID4212044 937-827-0197 2020-06-02 FOWLERVILLE MI HOUSTON TX 2020-06-04 V
LID4211713 830-629-4600 2020-06-02 CORSICANA TX SOUTHAVEN MS 2020-06-03 FD
LID4213514 830-629-4600 2020-06-02 SEALY TX AUSTIN TX 2020-06-02 F
LID4213518 830-629-4600 2020-06-02 SEALY TX SAN ANTONIO TX 2020-06-02 F
LID4213522 830-629-4600 2020-06-02 SEALY TX HOUSTON TX 2020-06-02 F
LID4213526 830-629-4600 2020-06-02 SEALY TX HOUSTON TX 2020-06-02 F
LID4213530 830-629-4600 2020-06-02 IRVING TX AUSTIN TX 2020-06-02 F
LID4213589 937-827-0197 2020-06-02 DENVER CO CARROLLTON TX 2020-06-03 V
LID4207423 844-373-5795 2020-06-02 DALLAS TX GROVEPORT OH 2020-06-04 V
LID4211727 830-629-4600 2020-06-02 GAINESVILLE TX Houston TX 2020-06-03 FD
LID4197168 830-629-4600 2020-06-02 DALLAS TX FT. WORTH TX 2020-06-02 F
LID4209366 847-463-5128 2020-06-02 DENTON TX LOGAN UT 2020-06-05 V
LID4211726 830-629-4600 2020-06-02 GAINESVILLE TX Houston TX 2020-06-03 FD
LID4206527 844-814-7073 2020-06-02 FORT WORTH TX LAKELAND FL 2020-06-04 V
LID4210640-1 800-407-9261 2020-06-02 SANTA TERESA NM STRATFORD TX 2020-06-03 SD
LID4197184 830-629-4600 2020-06-02 DALLAS TX FT. WORTH TX 2020-06-02 F
LID4208970 800-577-3878 2020-06-02 Perrysburg OH Runge TX 2020-06-05 V
LID4213515 830-629-4600 2020-06-02 SEALY TX AUSTIN TX 2020-06-02 F
LID4208965 800-577-3878 2020-06-02 Perrysburg OH Runge TX 2020-06-05 V
LID4213501 830-629-4600 2020-06-02 IRVING TX CORPUS CHRISTI TX 2020-06-02 F
LID4213511 830-629-4600 2020-06-02 SEALY TX AUSTIN TX 2020-06-02 F
LID4212549 830-629-4600 2020-06-02 DALLAS TX TYLER TX 2020-06-02 F
LID4212553 830-629-4600 2020-06-02 ENNIS TX WACO TX 2020-06-02 F
LID4211671 830-629-4600 2020-06-02 CORSICANA TX SOUTHAVEN MS 2020-06-03 FD
LID4212530 830-629-4600 2020-06-02 DALLAS TX MCKINNEY TX 2020-06-02 F
LID4211539 830-629-4600 2020-06-02 Ennis TX GRAND PRAIRIE TX 2020-06-02 F
LID4211715 830-629-4600 2020-06-02 GAINESVILLE TX Houston TX 2020-06-03 FD
LID4212528 830-629-4600 2020-06-02 DALLAS TX FT. WORTH TX 2020-06-02 F
LID4211477 830-629-4600 2020-06-02 HOUSTON TX AUSTIN TX 2020-06-02 FD
LID4213814 937-827-0197 2020-06-02 HARTFORD IL CORPUS CHRISTI TX 2020-06-03 V
LID4211725 830-629-4600 2020-06-02 GAINESVILLE TX Houston TX 2020-06-03 FD
LID4211719 830-629-4600 2020-06-02 GAINESVILLE TX Houston TX 2020-06-03 FD
LID4208882 800-577-3878 2020-06-02 Perrysburg OH Runge TX 2020-06-05 V
LID4213519 830-629-4600 2020-06-02 SEALY TX SAN ANTONIO TX 2020-06-02 F
LID4213287 888-215-6538 2020-06-02 AMARILLO TX TOPEKA KS 2020-06-03 F
LID4208876 800-577-3878 2020-06-02 Perrysburg OH Runge TX 2020-06-05 V
LID4208871 800-577-3878 2020-06-02 Perrysburg OH Runge TX 2020-06-05 V
LID4213504 830-629-4600 2020-06-02 IRVING TX CORPUS CHRISTI TX 2020-06-02 F
LID4212043 937-827-0197 2020-06-02 FOWLERVILLE MI AUSTIN TX 2020-06-04 V
LID4208894 800-577-3878 2020-06-02 Perrysburg OH Runge TX 2020-06-05 V
LID4208913 314-401-6863 2020-06-02 Willis TX APPLING GA 2020-06-04 V
LID4213531 830-629-4600 2020-06-02 ENNIS TX AUSTIN TX 2020-06-02 F
LID4210199 937-827-0198 2020-06-02 Mansfield TX Oak Park MI 2020-06-04 RT
LID4208974 800-577-3878 2020-06-02 Perrysburg OH Runge TX 2020-06-05 V
LID4213527 830-629-4600 2020-06-02 SEALY TX STAFFORD TX 2020-06-02 F
LID4211673 830-629-4600 2020-06-02 CORSICANA TX SOUTHAVEN MS 2020-06-03 FD
LID4212531 830-629-4600 2020-06-02 IRVING TX GARLAND TX 2020-06-02 F
LID4211724 830-629-4600 2020-06-02 GAINESVILLE TX Houston TX 2020-06-03 FD
LID4213299 888-215-6538 2020-06-03 SHERMAN TX PUEBLO CO 2020-06-05 FD
LID4211753 830-629-4600 2020-06-03 HOUSTON TX ABILENE TX 2020-06-03 FD
LID4211616 830-629-4600 2020-06-03 Ennis TX GRAND PRAIRIE TX 2020-06-03 F
LID4204534 800-577-3878 2020-06-03 Pineville NC BROOKSHIRE TX 2020-06-05 V
LID4211763 830-629-4600 2020-06-03 CORSICANA TX SOUTHAVEN MS 2020-06-04 FD
LID4213297 888-215-6538 2020-06-03 SHERMAN TX PUEBLO CO 2020-06-05 FD
LID4211540 830-629-4600 2020-06-03 Ennis TX GRAND PRAIRIE TX 2020-06-03 F
LID4201049 888-285-4514 2020-06-03 BRISTOL VA NEW CANEY TX 2020-06-05 V
LID4206755 844-797-8188 2020-06-03 DALLAS TX MONROE LA 2020-06-04 VR
LID4204533 800-577-3878 2020-06-03 Pineville NC BROOKSHIRE TX 2020-06-05 V
LID4210237 844-797-8190 2020-06-03 TYLER TX PEWAUKEE WI 2020-06-05 V
LID4213212 844-797-8190 2020-06-03 TYLER TX HILLSIDE IL 2020-06-05 V
LID4211902 830-629-4600 2020-06-03 Ennis TX GRAND PRAIRIE TX 2020-06-03 F
LID4198260 830-629-4600 2020-06-03 DALLAS TX FT. WORTH TX 2020-06-03 F
LID4197181 830-629-4600 2020-06-03 DALLAS TX FT. WORTH TX 2020-06-03 F
LID4213298 888-215-6538 2020-06-03 SHERMAN TX PUEBLO CO 2020-06-05 F
LID4213448 800-577-3878 2020-06-03 Dallas TX Memphis TN 2020-06-03 F
LID4211758 830-629-4600 2020-06-03 CORSICANA TX SOUTHAVEN MS 2020-06-04 FD
LID4207381 800-577-3878 2020-06-03 Fort Collins CO Austin TX 2020-06-05 V
LID4206740 844-797-8188 2020-06-03 DALLAS TX MONROE LA 2020-06-04 VR
LID4213352 830-629-4600 2020-06-03 IRVING TX DALLAS TX 2020-06-03 F
LID4213474-6 708-332-0526 2020-06-03 PHOENIX AZ FORT WORTH TX 2020-06-05 PT
LID4177935 830-629-4600 2020-06-03 Corsicana TX Houston TX 2020-06-04 FD
LID4210251 844-797-8190 2020-06-03 TYLER TX PEWAUKEE WI 2020-06-05 V
LID4177920 830-629-4600 2020-06-03 Corsicana TX Houston TX 2020-06-04 FD
LID4177928 830-629-4600 2020-06-03 Corsicana TX Houston TX 2020-06-04 FD
LID4177944 830-629-4600 2020-06-03 Corsicana TX Houston TX 2020-06-04 FD
LID4213474-4 708-332-0526 2020-06-03 PHOENIX AZ FORT WORTH TX 2020-06-05 PT
LID4198258 830-629-4600 2020-06-04 DALLAS TX FT. WORTH TX 2020-06-04 F
LID4212841 800-577-3878 2020-06-04 Houston TX Dillon SC 2020-06-05 VM
LID4209858 800-577-3878 2020-06-04 Irving TX Tulsa OK 2020-06-04 F
LID4213066 847-463-5128 2020-06-04 DENTON TX Rexdale ON 2020-06-08 V
LID4211392 844-373-5795 2020-06-04 DALLAS TX GROVEPORT OH 2020-06-08 V
LID4211777 830-629-4600 2020-06-04 CORSICANA TX SOUTHAVEN MS 2020-06-05 FD
LID4212556 830-629-4600 2020-06-04 ENNIS TX DALLAS TX 2020-06-04 F
LID4177950 830-629-4600 2020-06-04 Corsicana TX Houston TX 2020-06-05 FD
LID4210863 800-577-3878 2020-06-04 Ennis TX VAN BUREN AR 2020-06-05 F
LID4213175 847-463-5128 2020-06-04 DENTON TX PAW PAW MI 2020-06-06 V
LID4179269 830-629-4600 2020-06-04 CORSICANA TX Katy TX 2020-06-05 FD
LID4213359 847-463-5128 2020-06-04 DENTON TX CAMBRIDGE MD 2020-06-08 V
LID4179272 830-629-4600 2020-06-04 CORSICANA TX Katy TX 2020-06-05 FD
LID4211189 855-494-2049 2020-06-04 EL DORADO AR WEST ORANGE TX 2020-06-04 F
LID4213065 847-463-5128 2020-06-04 DENTON TX Rexdale ON 2020-06-08 V
LID4205529 888-285-4514 2020-06-04 LAREDO TX SHELBY NC 2020-06-07 V
LID4211780 830-629-4600 2020-06-04 CORSICANA TX SOUTHAVEN MS 2020-06-05 FD
LID4211164 855-494-2049 2020-06-04 FORNEY TX WEST ORANGE TX 2020-06-05 FZ
LID4202771 888-285-4514 2020-06-04 BRISTOL VA NEW CANEY TX 2020-06-06 V
LID4211778 830-629-4600 2020-06-04 CORSICANA TX SOUTHAVEN MS 2020-06-05 FD
LID4197182 830-629-4600 2020-06-04 DALLAS TX FT. WORTH TX 2020-06-04 F
LID4209329 800-577-3878 2020-06-04 Irving TX Corpus Christi TX 2020-06-05 F
LID4179271 830-629-4600 2020-06-04 CORSICANA TX Katy TX 2020-06-05 FD
LID4211781 830-629-4600 2020-06-04 CORSICANA TX SOUTHAVEN MS 2020-06-05 FD
LID4210744 888-285-4514 2020-06-04 LANCASTER OH PALESTINE TX 2020-06-06 V
LID4179270 830-629-4600 2020-06-04 CORSICANA TX Katy TX 2020-06-05 FD
LID4213474-5 708-332-0526 2020-06-04 PHOENIX AZ FORT WORTH TX 2020-06-06 PT
LID4179268 830-629-4600 2020-06-04 CORSICANA TX Katy TX 2020-06-05 FD
LID4203284 800-577-3878 2020-06-05 Pineville NC DALLAS TX 2020-06-08 V
LID3986504 800-500-4915 2020-06-05 Altavista VA Hutchins TX 2020-06-08 V
LID4208999 800-577-3878 2020-06-05 Perrysburg OH Runge TX 2020-06-08 V
LID4209193 800-577-3878 2020-06-05 Perrysburg OH Runge TX 2020-06-08 V
LID4209011 800-577-3878 2020-06-05 Perrysburg OH Runge TX 2020-06-08 V
LID4202850 844-373-5795 2020-06-05 CLEARFIELD UT ENNIS TX 2020-06-08 V
LID4209203 800-577-3878 2020-06-05 Perrysburg OH Runge TX 2020-06-08 V
LID4202849 844-373-5795 2020-06-05 CLEARFIELD UT ENNIS TX 2020-06-08 V
LID4212393 937-827-0198 2020-06-05 Mansfield TX San Diego CA 2020-06-08 RT
LID4212621 888-285-4514 2020-06-05 MINEOLA TX HARRISONVILLE MO 2020-06-06 V
LID4212373 800-577-3878 2020-06-05 CONROE TX Maryland Heights MO 2020-06-08 V
LID4212839 727-209-3967 2020-06-05 BRAINERD MN LANCASTER TX 2020-06-08 V
LID4117922 937-827-0197 2020-06-05 MISSOURI CITY TX COLUMBUS OH 2020-06-08 V
LID4211509 844-797-8190 2020-06-05 TYLER TX ALLEN KY 2020-06-08 V
LID4209001 800-577-3878 2020-06-05 Perrysburg OH Runge TX 2020-06-08 V
LID4208997 800-577-3878 2020-06-05 Perrysburg OH Runge TX 2020-06-08 V
LID4208993 800-577-3878 2020-06-05 Perrysburg OH Runge TX 2020-06-08 V
LID4193022 937-827-0198 2020-06-08 Modesto CA Grand Prairie TX 2020-06-11 V
LID4211380 844-373-5795 2020-06-08 CLEARFIELD UT ENNIS TX 2020-06-11 V
LID4186089 937-827-0198 2020-06-08 Modesto CA Grand Prairie TX 2020-06-11 V
LID4209601 830-629-4600 2020-06-08 Corsicana TX Houston TX 2020-06-09 F
LID4193037 937-827-0198 2020-06-09 Modesto CA Grand Prairie TX 2020-06-12 V
LID4211167 888-285-4514 2020-06-09 TERRELL TX MURRAY KY 2020-06-10 V
LID4211166 888-285-4514 2020-06-09 TERRELL TX MURRAY KY 2020-06-10 V
LID4186090 937-827-0198 2020-06-09 Modesto CA Grand Prairie TX 2020-06-12 V
LID4211615 830-629-4600 2020-06-09 Ennis TX GRAND PRAIRIE TX 2020-06-09 F
LID4211168 888-285-4514 2020-06-09 TERRELL TX MURRAY KY 2020-06-10 V
LID4211170 888-285-4514 2020-06-10 TERRELL TX MURRAY KY 2020-06-11 V
LID4211169 888-285-4514 2020-06-10 TERRELL TX MURRAY KY 2020-06-11 V
LID4102930 830-629-4600 2020-06-10 IRVING TX AUSTIN TX 2020-06-10 F
LID4211172 888-285-4514 2020-06-11 TERRELL TX MURRAY KY 2020-06-12 V
LID4211171 888-285-4514 2020-06-11 TERRELL TX MURRAY KY 2020-06-12 V
LID4211176 888-285-4514 2020-06-11 TERRELL TX MURRAY KY 2020-06-12 V
LID4211175 888-285-4514 2020-06-12 TERRELL TX MURRAY KY 2020-06-15 V
LID4211180 888-285-4514 2020-06-12 TERRELL TX MURRAY KY 2020-06-15 V
LID4211182 888-285-4514 2020-06-12 TERRELL TX MURRAY KY 2020-06-15 V
LID4211173 888-285-4514 2020-06-12 TERRELL TX MURRAY KY 2020-06-15 V
LID4211174 888-285-4514 2020-06-12 TERRELL TX MURRAY KY 2020-06-15 V
LID4211541 844-373-5795 2020-06-12 CLEARFIELD UT ENNIS TX 2020-06-15 V
LID4211183 888-285-4514 2020-06-12 TERRELL TX MURRAY KY 2020-06-15 V
LID4213471 800-577-3878 2020-06-15 IRVING TX HARLINGEN TX 2020-06-16 F
LID4193040 937-827-0198 2020-06-15 Modesto CA Grand Prairie TX 2020-06-18 V
LID4211178 888-285-4514 2020-06-16 TERRELL TX MURRAY KY 2020-06-17 V
LID4213473 800-577-3878 2020-06-16 IRVING TX HARLINGEN TX 2020-06-17 F
LID4193047 937-827-0198 2020-06-16 Modesto CA Grand Prairie TX 2020-06-19 V
LID4188443 830-629-4600 2020-06-16 SEALY TX CONROE TX 2020-06-16 F
LID4211177 888-285-4514 2020-06-16 TERRELL TX MURRAY KY 2020-06-17 V
LID4211614 830-629-4600 2020-06-16 Ennis TX GRAND PRAIRIE TX 2020-06-16 F
LID4211184 888-285-4514 2020-06-16 TERRELL TX MURRAY KY 2020-06-17 V
LID4178095 844-373-5795 2020-06-16 DALLAS TX GROVEPORT OH 2020-06-18 V
LID4120550 830-629-4600 2020-06-17 ENNIS TX DALLAS TX 2020-06-17 F
LID4211188 888-285-4514 2020-06-17 TERRELL TX MURRAY KY 2020-06-18 V
LID4211185 888-285-4514 2020-06-17 TERRELL TX MURRAY KY 2020-06-18 V
LID4120555 830-629-4600 2020-06-17 ENNIS TX DALLAS TX 2020-06-17 F
LID4120551 830-629-4600 2020-06-17 ENNIS TX DALLAS TX 2020-06-17 F
LID4120554 830-629-4600 2020-06-17 ENNIS TX DALLAS TX 2020-06-17 F
LID4120553 830-629-4600 2020-06-17 ENNIS TX DALLAS TX 2020-06-17 F
LID4213476 800-577-3878 2020-06-18 IRVING TX HARLINGEN TX 2020-06-19 F
LID4203456 830-629-4600 2020-06-22 CORSICANA TX Meadows Place TX 2020-06-23 FD
LID4120587 830-629-4600 2020-06-22 ENNIS TX DALLAS TX 2020-06-22 F
LID4209885 830-629-4600 2020-06-22 DALLAS TX GARLAND TX 2020-06-22 F
LID4120586 830-629-4600 2020-06-22 ENNIS TX DALLAS TX 2020-06-22 F
LID4203455 830-629-4600 2020-06-22 CORSICANA TX Meadows Place TX 2020-06-23 FD
LID4211553 830-629-4600 2020-06-23 Ennis TX GRAND PRAIRIE TX 2020-06-23 F
LID4146119 937-827-0197 2020-06-23 MISSOURI CITY TX COLUMBUS OH 2020-06-25 V
LID4120559 830-629-4600 2020-06-25 ENNIS TX DALLAS TX 2020-06-25 F
LID4120561 830-629-4600 2020-06-25 ENNIS TX DALLAS TX 2020-06-25 F
LID4198525 800-577-3878 2020-06-30 Flower Mound TX Flower Mound TX 2020-06-30 V
LID4211552 830-629-4600 2020-07-09 Ennis TX GRAND PRAIRIE TX 2020-07-09 F
LID4166743 937-827-0197 2020-07-10 MISSOURI CITY TX COLUMBUS OH 2020-07-13 V
LID4180748 937-827-0197 2020-07-20 MISSOURI CITY TX COLUMBUS OH 2020-07-22 V
LID4190288 937-827-0197 2020-07-21 MISSOURI CITY TX COLUMBUS OH 2020-07-23 V
LID4203267 937-827-0197 2020-08-03 MISSOURI CITY TX COLUMBUS OH 2020-08-05 V
LID4112705 830-629-4600 2020-12-31 ENNIS TX GRAND PRAIRIE TX 2020-12-31 F
LID4112607 830-629-4600 2020-12-31 ENNIS TX HOUSTON TX 2020-12-31 F
LID4112704 830-629-4600 2020-12-31 ENNIS TX GRAND PRAIRIE TX 2020-12-31 F
LID4112578 830-629-4600 2020-12-31 ENNIS TX HOUSTON TX 2020-12-31 F
LID4112707 830-629-4600 2020-12-31 ENNIS TX GRAND PRAIRIE TX 2020-12-31 F
LID4071798 830-629-4600 2020-12-31 ENNIS TX HOUSTON TX 2020-12-31 F
LID4071802 830-629-4600 2020-12-31 ENNIS TX HOUSTON TX 2020-12-31 F
LID4112708 830-629-4600 2020-12-31 DALLAS TX GRAND PRAIRIE TX 2020-12-31 F
LID4112595 830-629-4600 2020-12-31 ENNIS TX HOUSTON TX 2020-12-31 F
LID4112475 830-629-4600 2020-12-31 DALLAS TX SAN ANTONIO TX 2020-12-31 F
LID4073850 830-629-4600 2020-12-31 ENNIS TX SAN ANTONIO TX 2020-12-31 F
LID4089577 830-629-4600 2020-12-31 ENNIS TX HOUSTON TX 2020-12-31 F
LID4089582 830-629-4600 2020-12-31 ENNIS TX HOUSTON TX 2020-12-31 F
LID4089580 830-629-4600 2020-12-31 ENNIS TX HOUSTON TX 2020-12-31 F
LID4073521 830-629-4600 2020-12-31 ENNIS TX CONROE TX 2020-12-31 F
LID4112582 830-629-4600 2020-12-31 ENNIS TX HOUSTON TX 2020-12-31 F
LID4112460 830-629-4600 2020-12-31 DALLAS TX AUSTIN TX 2020-12-31 F
LID4112586 830-629-4600 2020-12-31 ENNIS TX HOUSTON TX 2020-12-31 F
LID4074159 830-629-4600 2020-12-31 ENNIS TX HOUSTON TX 2020-12-31 F
LID4112464 830-629-4600 2020-12-31 DALLAS TX SAN ANTONIO TX 2020-12-31 F
LID4071795 830-629-4600 2020-12-31 ENNIS TX HOUSTON TX 2020-12-31 F
LID4112468 830-629-4600 2020-12-31 DALLAS TX AUSTIN TX 2020-12-31 F
LID4074158 830-629-4600 2020-12-31 ENNIS TX HOUSTON TX 2020-12-31 F
LID4112473 830-629-4600 2020-12-31 DALLAS TX SAN ANTONIO TX 2020-12-31 F
LID4124747 830-629-4600 2020-12-31 ENNIS TX HOUSTON TX 2020-12-31 F
LID4124751 830-629-4600 2020-12-31 ENNIS TX HOUSTON TX 2020-12-31 F
LID4124754 830-629-4600 2020-12-31 ENNIS TX HOUSTON TX 2020-12-31 F
LID4074133 830-629-4600 2020-12-31 ENNIS TX CONROE TX 2020-12-31 F
LID4110028 830-629-4600 2020-12-31 ENNIS TX HOUSTON TX 2020-12-31 F
LID4097977 830-629-4600 2020-12-31 DALLAS TX SAN ANTONIO TX 2020-12-31 F
LID4097978 830-629-4600 2020-12-31 DALLAS TX SAN ANTONIO TX 2020-12-31 F
LID4120544 830-629-4600 2020-12-31 ENNIS TX GRAND PRAIRIE TX 2020-12-31 F
LID4120548 830-629-4600 2020-12-31 DALLAS TX GRAND PRAIRIE TX 2020-12-31 F
LID4112462 830-629-4600 2020-12-31 DALLAS TX SAN ANTONIO TX 2020-12-31 F
LID4112587 830-629-4600 2020-12-31 ENNIS TX KATY TX 2020-12-31 F
LID4112609 830-629-4600 2020-12-31 ENNIS TX HOUSTON TX 2020-12-31 F
LID4107646 830-629-4600 2020-12-31 ENNIS TX KATY TX 2020-12-31 F
LID4112451 830-629-4600 2020-12-31 ENNIS TX HOUSTON TX 2020-12-31 F
LID4112581 830-629-4600 2020-12-31 ENNIS TX HOUSTON TX 2020-12-31 F
LID4112466 830-629-4600 2020-12-31 DALLAS TX SAN ANTONIO TX 2020-12-31 F
LID4112585 830-629-4600 2020-12-31 ENNIS TX HOUSTON TX 2020-12-31 F
LID4114885 830-629-4600 2020-12-31 DALLAS TX GRAND PRAIRIE TX 2020-12-31 F
LID4112584 830-629-4600 2020-12-31 ENNIS TX HOUSTON TX 2020-12-31 F
LID4112590 830-629-4600 2020-12-31 ENNIS TX KATY TX 2020-12-31 F
LID4112602 830-629-4600 2020-12-31 ENNIS TX HOUSTON TX 2020-12-31 F
LID4112580 830-629-4600 2020-12-31 ENNIS TX KATY TX 2020-12-31 F
LID4112459 830-629-4600 2020-12-31 DALLAS TX AUSTIN TX 2020-12-31 F
LID4112463 830-629-4600 2020-12-31 DALLAS TX SAN ANTONIO TX 2020-12-31 F
LID4112467 830-629-4600 2020-12-31 DALLAS TX AUSTIN TX 2020-12-31 F
LID4112470 830-629-4600 2020-12-31 DALLAS TX AUSTIN TX 2020-12-31 F
LID4112474 830-629-4600 2020-12-31 DALLAS TX SAN ANTONIO TX 2020-12-31 F
LID4120545 830-629-4600 2020-12-31 ENNIS TX GRAND PRAIRIE TX 2020-12-31 F
LID4120549 830-629-4600 2020-12-31 DALLAS TX GRAND PRAIRIE TX 2020-12-31 F
LID4122870 830-629-4600 2020-12-31 DALLAS TX FT. WORTH TX 2020-12-31 F
LID4122866 830-629-4600 2020-12-31 DALLAS TX DALLAS TX 2020-12-31 F
LID4122862 830-629-4600 2020-12-31 ENNIS TX CONROE TX 2020-12-31 F
LID4114881 830-629-4600 2020-12-31 DALLAS TX GRAND PRAIRIE TX 2020-12-31 F
LID4114884 830-629-4600 2020-12-31 DALLAS TX GRAND PRAIRIE TX 2020-12-31 F
LID4114880 830-629-4600 2020-12-31 ENNIS TX GRAND PRAIRIE TX 2020-12-31 F
LID4122868 830-629-4600 2020-12-31 ENNIS TX GARLAND TX 2020-12-31 F
LID4122864 830-629-4600 2020-12-31 ENNIS TX CONROE TX 2020-12-31 F
LID4122869 830-629-4600 2020-12-31 ENNIS TX GARLAND TX 2020-12-31 F
LID4097975 830-629-4600 2020-12-31 DALLAS TX AUSTIN TX 2020-12-31 F
LID4203372 830-629-4600 2020-12-31 DALLAS TX FT. WORTH TX 2020-12-31 F
LID4112604 830-629-4600 2020-12-31 ENNIS TX AUSTIN TX 2020-12-31 F
LID4114886 830-629-4600 2020-12-31 DALLAS TX GRAND PRAIRIE TX 2020-12-31 F
LID4114894 830-629-4600 2020-12-31 DALLAS TX GARLAND TX 2020-12-31 F
LID4114883 830-629-4600 2020-12-31 ENNIS TX GRAND PRAIRIE TX 2020-12-31 F
LID4112597 830-629-4600 2020-12-31 ENNIS TX HOUSTON TX 2020-12-31 F
LID4110005 830-629-4600 2020-12-31 ENNIS TX AMARILLO TX 2020-12-31 F
LID4120522 830-629-4600 2020-12-31 DALLAS TX AUSTIN TX 2020-12-31 F
LID4120546 830-629-4600 2020-12-31 ENNIS TX GRAND PRAIRIE TX 2020-12-31 F
LID4120547 830-629-4600 2020-12-31 ENNIS TX GRAND PRAIRIE TX 2020-12-31 F
LID4112469 830-629-4600 2020-12-31 DALLAS TX AUSTIN TX 2020-12-31 F
LID4112600 830-629-4600 2020-12-31 ENNIS TX HOUSTON TX 2020-12-31 F
LID4112477 830-629-4600 2020-12-31 DALLAS TX SAN ANTONIO TX 2020-12-31 F
LID4112589 830-629-4600 2020-12-31 ENNIS TX KATY TX 2020-12-31 F
LID4112583 830-629-4600 2020-12-31 ENNIS TX BEAUMONT TX 2020-12-31 F
LID4112579 830-629-4600 2020-12-31 ENNIS TX SAN ANTONIO TX 2020-12-31 F
LID4112476 830-629-4600 2020-12-31 DALLAS TX SAN ANTONIO TX 2020-12-31 F
LID4071800 830-629-4600 2020-12-31 ENNIS TX HOUSTON TX 2020-12-31 F